Simultaneous Nadir Overpasses (SNOs) Predictions

Prediction of SNOs between GOES-15 and METOP-B Satellite Orbit:

Table of predicted SNOs for the next 14.0 days since TLE Epoch: 3/4/2023
Index Date Time (GOES-15) GOES-15 Lat,Lon METOP-B Lat,Lon Distance(km) Time Diff (sec)
1 03/05/2023 06:16:57 0.06,-127.93 -0.80,-131.88 450.05 80
2 03/06/2023 05:58:56 0.05,-127.90 0.26,-126.88 116.62 80
3 03/07/2023 18:15:07 -0.06,-127.84 0.75,-131.44 409.94 80
4 03/08/2023 17:57:08 -0.05,-127.82 -0.37,-126.45 156.42 80
5 03/10/2023 06:13:27 0.06,-127.79 -0.67,-131.04 370.03 80
6 03/11/2023 05:55:28 0.05,-127.76 0.46,-126.05 196.16 80
7 03/12/2023 18:11:38 -0.07,-127.69 0.60,-130.60 331.38 80
8 03/13/2023 17:53:39 -0.06,-127.65 -0.54,-125.61 234.00 80
9 03/15/2023 06:09:58 0.08,-127.61 -0.48,-130.20 294.33 80
10 03/16/2023 05:51:58 0.08,-127.57 0.61,-125.20 270.77 80
11 03/17/2023 18:08:08 -0.09,-127.49 0.44,-129.75 257.90 80
